Regional Weather Roundup
Issued by NWS

Home | Current Version | Previous Version | Text Only | Print | Product List | Glossary Off
Versions: 1 2 3 4 5 6 7 8 9 10 11 12 13 14 15 16 17 18 19 20 21 22 23 24 25 26 27 28 29 30 31 32 33 34 35 36 37 38 39 40 41 42 43 44 45 46 47 48 49 50

648
ASUS45 KABQ 232001
RWRNM
NEW MEXICO REGIONAL WEATHER ROUNDUP
NATIONAL WEATHER SERVICE ALBUQUERQUE NM
200 PM MDT THU MAR 23 2017

NOTE: "FAIR" MEANS FEW OR NO CLOUDS BELOW 12,000 FEET AGL WITH NO
       SIGNIFICANT WEATHER OR OBSTRUCTIONS TO VISION.

      THIS PRODUCT IS RELEASED AS TWO VERSIONS.  ONE VERSION NEAR
      THE TOP OF THE HOUR CONTAINING PRELIMINARY DATA FROM ALBUQUERQUE
      AND OTHER STATIONS.  A FINAL VERSION WITH ADDITIONAL DATA IS
      ISSUED ABOUT 10 MINUTES AFTER THE HOUR.

NMZ501-503-504-510>518-232100-
NORTHWEST PLATEAU/NORTHCENTRAL MOUNTAINS

CITY           SKY/WX    TMP DP  RH WIND       PRES   REMARKS
FARMINGTON     PTSUNNY   46  35  65 W15       29.79S
LOS ALAMOS     PTSUNNY   58  13  17 S25G48    29.76F
SANTA FE       FAIR      69  14  12 SW25G45   29.71F
TAOS             N/A     61  18  18 SW30G38   29.74F
ANGEL FIRE     PTSUNNY   59  12  15 S28G38    29.80F

$$
NMZ402-403-502-505>509-232100-
WESTCENTRAL MOUNTAINS/SOUTHWEST MOUNTAINS

CITY           SKY/WX    TMP DP  RH WIND       PRES   REMARKS
GALLUP         CLOUDY    43  33  68 SW17      29.87S
GRANTS         FAIR      47  29  51 W21G32    29.87F
SILVER CITY    FAIR      53  31  43 W25G45    29.94S

$$
NMZ407-409-411-412-232100-
SOUTHERN DESERTS

CITY           SKY/WX    TMP DP  RH WIND       PRES   REMARKS
DEMING         PTSUNNY   58  37  45 W29G43    29.88F
LAS CRUCES     CLOUDY    65  36  34 W38G56    29.83R HAZE
HOLLOMAN AFB   FAIR      77  24  14 SW29G38   29.77F
ALAMOGORDO     FAIR      75  25  15 SW30G41   29.75F
T OR C         PTSUNNY   61  37  41 W21G38    29.79R

$$
NMZ519>523-232100-
CENTRAL VALLEYS/CENTRAL HIGHLANDS

CITY           SKY/WX    TMP DP  RH WIND       PRES   REMARKS
ALBUQUERQUE    PTSUNNY   67  14  13 SW30G43   29.72F
DOUBLE EAGLE   PTSUNNY   59  30  33 W37G49    29.74F BLWGDUST
MORIARTY ARPT  FAIR      70  16  12 S41G53    29.76F
CLINES CORNERS FAIR      65  17  15 SW36G47   29.79F
BELEN          CLOUDY    62  27  26 W40G49    29.75R HAZE
SOCORRO        PTSUNNY   63  32  31 W24G48    29.76R

$$
NMZ524>526-539-540-232100-
SOUTHCENTRAL MOUNTAINS

CITY           SKY/WX    TMP DP  RH WIND       PRES   REMARKS
RUIDOSO        NOT AVBL

$$
NMZ527>531-232100-
NORTHEAST HIGHLANDS/NORTHEAST PLAINS

CITY           SKY/WX    TMP DP  RH WIND       PRES   REMARKS
LAS VEGAS      FAIR      69  15  12 S30G46    29.74F
RATON          FAIR      73  12   9 SW44G59   29.68F
CLAYTON        FAIR      79  27  14 S28G47    29.69F

$$
NMZ532>537-232100-
EASTCENTRAL PLAINS

CITY           SKY/WX    TMP DP  RH WIND       PRES   REMARKS
SANTA ROSA     FAIR      78  24  13 SW15G31   29.64F
TUCUMCARI      FAIR      87  15   7 S31G49    29.61F
CANNON AFB     FAIR      82  42  23 S29G38    29.69F
CLOVIS AIRPORT FAIR      82  46  28 S26G37    29.70F

$$
NMZ028-029-538-232100-
SOUTHEAST PLAINS

CITY           SKY/WX    TMP DP  RH WIND       PRES   REMARKS
ROSWELL        FAIR      86  39  19 S23G39    29.63F
ARTESIA        FAIR      88  45  22 S29G37    29.64F
CARLSBAD       FAIR      92  13   5 S32G47    29.61F HAZE
HOBBS          SUNNY     82  46  28 SE28G39   29.73F


$$




USA.gov is the U.S. government's official web portal to all federal, state and local government web resources and services.